Weather History for Ottumwa, IA

Change the Weather History Date:

Friday, June 29, 2012

  Actual Average Record
Temperature  
Mean Temperature 82 °F 74 °F  
Max Temperature 94 °F 85 °F 107 °F (1934)
Min Temperature 70 °F 64 °F 49 °F (1923)
Degree Days  
Heating Degree Days 0 0  
Month to date heating degree days 13 19  
Since 1 June heating degree days 13 19  
Since 1 July heating degree days 5038 6315  
Cooling Degree Days 17 9  
Month to date cooling degree days 224 190  
Year to date cooling degree days 378 254  
Since 1 June cooling degree days 224 190  
Growing Degree Days 32 (Base 50)    
Moisture  
Dew Point 69 °F    
Average Humidity 67    
Maximum Humidity 88    
Minimum Humidity 46    
Precipitation  
Precipitation T in 0.16 in 1.85 in (1906)
Month to date precipitation 3.23 4.93  
Year to date precipitation 14.58 17.46  
Sea Level Pressure  
Sea Level Pressure 29.83 in    
Wind  
Wind Speed 6 mph (SE)    
Max Wind Speed 32 mph    
Max Gust Speed 41 mph    
Visibility 10 miles    
Events Rain , Thunderstorm    
T = Trace of Precipitation, MM = Missing Value Source: NWS Daily Summary

Daily Weather History Graph

Daily Weather History Graph

Search for Another Location

Airport:

Trip Planner

Search our weather history database for the weather conditions in past years. The results will help you decide how hot, cold, wet, or windy it might be!

Date:

Astronomy

Jun. 29, 2012 Rise Set
Actual Time 5:40 AM CDT 8:46 PM CDT
Civil Twilight 5:06 AM CDT 9:19 PM CDT
Nautical Twilight 4:23 AM CDT 10:02 PM CDT
Astronomical Twilight 3:32 AM CDT 10:53 PM CDT
Moon 4:31 PM CDT (6/29) 1:52 AM CDT (6/29)
Length of Visible Light 16h 13m
Length of Day
15h 05m
Waxing Gibbous, 78% of the Moon is Illuminated
Jun 29
Waxing Gibbous
Jul 3
Full
Jul 10
Last Quarter
Jul 18
New
Jul 26
First Quarter

Hourly Weather History & Observations

Time (CDT) Temp. Heat Index Dew Point Humidity Pressure Visibility Wind Dir Wind Speed Gust Speed Precip Events Conditions
12:53 AM 81.0 °F 86.7 °F 75.0 °F 82% 29.86 in 9.0 mi East 4.6 mph - N/A   Clear
1:53 AM 79.0 °F - 73.0 °F 82% 29.87 in 10.0 mi ENE 5.8 mph - N/A   Clear
2:53 AM 77.0 °F - 72.0 °F 84% 29.87 in 10.0 mi East 5.8 mph - N/A   Clear
3:53 AM 75.9 °F - 72.0 °F 87% 29.86 in 8.0 mi ENE 5.8 mph - N/A   Clear
4:53 AM 75.0 °F - 71.1 °F 87% 29.86 in 8.0 mi ENE 3.5 mph - N/A   Clear
5:53 AM 73.9 °F - 68.0 °F 82% 29.86 in 10.0 mi East 6.9 mph - N/A   Clear
6:53 AM 73.9 °F - 70.0 °F 87% 29.88 in 8.0 mi South 5.8 mph - N/A   Partly Cloudy
7:53 AM 77.0 °F - 73.0 °F 88% 29.85 in 6.0 mi Calm Calm - N/A   Clear
8:53 AM 81.0 °F 84.9 °F 71.1 °F 72% 29.85 in 10.0 mi WSW 5.8 mph - N/A   Clear
9:53 AM 84.0 °F 89.0 °F 71.1 °F 65% 29.86 in 10.0 mi West 4.6 mph - N/A   Clear
10:53 AM 86.0 °F 91.5 °F 71.1 °F 61% 29.84 in 9.0 mi SW 3.5 mph - N/A   Clear
11:53 AM 89.1 °F 96.0 °F 72.0 °F 57% 29.84 in 10.0 mi SSW 4.6 mph - N/A   Clear
12:53 PM 91.9 °F 99.5 °F 72.0 °F 52% 29.83 in 10.0 mi South 9.2 mph - N/A   Clear
1:53 PM 91.0 °F 96.6 °F 70.0 °F 50% 29.82 in 10.0 mi South 12.7 mph - N/A   Clear
2:53 PM 91.9 °F 98.4 °F 71.1 °F 50% 29.79 in 10.0 mi SSW 10.4 mph 19.6 mph N/A   Clear
3:53 PM 93.0 °F 99.0 °F 70.0 °F 47% 29.78 in 10.0 mi SSW 9.2 mph - N/A   Clear
4:53 PM 91.0 °F 98.2 °F 72.0 °F 53% 29.76 in 10.0 mi WNW 4.6 mph - N/A   Partly Cloudy
5:11 PM 75.2 °F - 64.4 °F 69% 29.82 in 9.0 mi NNW 26.5 mph 41.4 mph N/A   Squalls
5:53 PM 75.0 °F - 64.0 °F 69% 29.80 in 10.0 mi North 16.1 mph - N/A   Partly Cloudy
6:53 PM 73.9 °F - 64.0 °F 71% 29.78 in 10.0 mi NE 13.8 mph - 0.00 in Rain Light Rain
7:38 PM 73.4 °F - 64.4 °F 73% 29.81 in 10.0 mi North 5.8 mph - 0.00 in Rain , Thunderstorm Light Rain
7:53 PM 73.0 °F - 64.0 °F 73% 29.80 in 10.0 mi NW 8.1 mph - 0.00 in   Scattered Clouds
8:53 PM 72.0 °F - 64.0 °F 76% 29.78 in 10.0 mi SE 5.8 mph - N/A   Mostly Cloudy
9:53 PM 72.0 °F - 64.0 °F 76% 29.80 in 10.0 mi Calm Calm - N/A   Mostly Cloudy
10:53 PM 72.0 °F - 66.0 °F 81% 29.81 in 10.0 mi Calm Calm - N/A   Overcast
11:53 PM 71.1 °F - 64.9 °F 81% 29.81 in 10.0 mi Calm Calm - N/A   Mostly Cloudy